This is the latest recevied weather packets stored in our database for station/object HS6PNA-1. If no packets are shown the sender has not sent any weather packets the latest 10 day(s).
| Time | Temp. | Humidity | Pressure | Rain* | Wind** | Luminosity | Snow |
|---|---|---|---|---|---|---|---|
| 1777636244 | 32.78° C | 62% | 1002 hPa | - | - | 0 W/m² | - |
| 1777635319 | 33.33° C | 62% | 1002 hPa | - | - | 0 W/m² | - |
| 1777634395 | 33.33° C | 61% | 1002 hPa | - | - | 4 W/m² | - |
| 1777633470 | 33.89° C | 60% | 1002 hPa | - | - | 12 W/m² | - |
| 1777632546 | 35° C | 51% | 1002 hPa | - | - | 14 W/m² | - |
| 1777631621 | 35.56° C | 52% | 1002 hPa | - | - | 33 W/m² | - |
| 1777630697 | 35° C | 50% | 1002 hPa | - | - | 17 W/m² | - |
| 1777629772 | 37.22° C | 44% | 1001 hPa | - | - | 50 W/m² | - |
| 1777628848 | 37.78° C | 44% | 1001 hPa | - | - | 65 W/m² | - |
| 1777627923 | 37.78° C | 44% | 1001 hPa | - | - | 63 W/m² | - |
| 1777626999 | 38.33° C | 42% | 1001 hPa | - | - | 130 W/m² | - |
| 1777626074 | 38.89° C | 41% | 1001 hPa | - | - | 106 W/m² | - |
| 1777625150 | 38.89° C | 41% | 1001 hPa | - | - | 223 W/m² | - |
| 1777624225 | 38.89° C | 42% | 1002 hPa | - | - | 286 W/m² | - |
| 1777623300 | 38.89° C | 41% | 1002 hPa | - | - | 282 W/m² | - |
| 1777622376 | 38.89° C | 42% | 1002 hPa | - | - | 228 W/m² | - |
| 1777621452 | 38.89° C | 43% | 1002 hPa | - | - | 327 W/m² | - |
| 1777620527 | 37.78° C | 45% | 1003 hPa | - | - | 292 W/m² | - |
| 1777619602 | 38.33° C | 42% | 1003 hPa | - | - | 209 W/m² | - |
| 1777618678 | 38.89° C | 41% | 1003 hPa | - | - | 411 W/m² | - |
| 1777617754 | 38.33° C | 41% | 1003 hPa | - | - | 372 W/m² | - |
| 1777616829 | 37.78° C | 43% | 1004 hPa | - | - | 303 W/m² | - |
| 1777615905 | 37.78° C | 45% | 1004 hPa | - | - | 391 W/m² | - |
| 1777614980 | 37.22° C | 45% | 1004 hPa | - | - | 431 W/m² | - |
| 1777614056 | 37.22° C | 46% | 1005 hPa | - | - | 336 W/m² | - |
* Rain since midnight (hover to see other rain measurements)
** Current wind speed in m/s (hover to see current wind gust speed)